Index of /hbasees/Kinetic/imgkin

[ICO]NameLast modifiedSizeDescription

[DIR]Parent Directory  -  
[   ]kinpre09-Nov-2016 10:26 774K 
[IMG]vapp2.png24-Jan-2017 20:01 79K 
[IMG]Meanfree.gif09-Nov-2016 10:26 72K 
[IMG]waalplot.png25-Apr-2017 14:03 67K 
[IMG]vapp5.png24-Jan-2017 20:01 63K 
[IMG]satvap.png24-Jan-2017 20:01 59K 
[IMG]Vapdens.png24-Jan-2017 20:01 52K 
[IMG]vapp3.png24-Jan-2017 20:01 51K 
[IMG]vapp4.png24-Jan-2017 20:01 47K 
[IMG]satdens.png24-Jan-2017 20:01 43K 
[IMG]vapp5.gif24-Jan-2017 20:01 34K 
[IMG]vapp2.gif24-Jan-2017 20:01 29K 
[IMG]kincon.gif09-Nov-2016 10:26 26K 
[IMG]Sav.jpg09-Nov-2016 10:26 25K 
[IMG]vapp3.gif24-Jan-2017 20:01 24K 
[IMG]pvtgas.gif09-Nov-2016 10:26 21K 
[IMG]mfree2.gif09-Nov-2016 10:26 21K 
[IMG]kinapp.gif09-Nov-2016 10:26 20K 
[IMG]mfree1b.gif09-Nov-2016 10:26 18K 
[IMG]statex.gif09-Nov-2016 10:26 18K 
[IMG]Nmolrad.png25-Apr-2017 14:03 17K 
[IMG]vapapp.gif09-Nov-2016 10:26 17K 
[IMG]igascn.gif09-Nov-2016 10:26 16K 
[IMG]rh3.gif09-Nov-2016 10:26 16K 
[IMG]vapp4.gif24-Jan-2017 20:01 16K 
[IMG]crusht.jpg09-Nov-2016 10:26 15K 
[IMG]ntcoll.gif09-Nov-2016 10:26 15K 
[IMG]weighgas.gif09-Nov-2016 10:26 15K 
[IMG]osm3.gif09-Nov-2016 10:26 15K 
[IMG]osm1.gif09-Nov-2016 10:26 14K 
[IMG]Savt.jpg09-Nov-2016 10:26 14K 
[IMG]osm2.gif09-Nov-2016 10:26 14K 
[IMG]mfree3b.gif09-Nov-2016 10:26 13K 
[IMG]mfree1.gif09-Nov-2016 10:26 13K 
[IMG]mfv4.gif09-Nov-2016 10:26 12K 
[IMG]vapp1.gif24-Jan-2017 20:01 12K 
[IMG]diff1.gif09-Nov-2016 10:26 11K 
[IMG]mfree5.gif09-Nov-2016 10:26 10K 
[IMG]mfv3.gif09-Nov-2016 10:26 9.6K 
[IMG]Mdge.jpg09-Nov-2016 10:26 9.6K 
[IMG]mxspd.gif09-Nov-2016 10:26 9.4K 
[IMG]mfv1.gif09-Nov-2016 10:26 9.2K 
[IMG]cokec.jpg09-Nov-2016 10:26 8.8K 
[IMG]lung1.gif09-Nov-2016 10:26 8.7K 
[IMG]Savi.gif09-Nov-2016 10:26 8.6K 
[IMG]barf2.gif09-Nov-2016 10:26 8.6K 
[IMG]Vapdenshi.gif09-Nov-2016 10:26 8.6K 
[IMG]watste.gif09-Nov-2016 10:26 8.4K 
[IMG]rh4.gif09-Nov-2016 10:26 8.3K 
[IMG]waalplot.gif09-Nov-2016 10:26 8.0K 
[IMG]Vapdens.gif09-Nov-2016 10:26 7.5K 
[IMG]Coke.jpg09-Nov-2016 10:26 7.3K 
[IMG]mdgex.jpg09-Nov-2016 10:26 6.7K 
[IMG]mspe12.gif09-Nov-2016 10:26 6.4K 
[IMG]lung2.gif09-Nov-2016 10:26 6.1K 
[IMG]shmh.gif09-Nov-2016 10:26 5.7K 
[IMG]equi1.gif09-Nov-2016 10:26 5.7K 
[IMG]bol12b.gif09-Nov-2016 10:26 5.5K 
[IMG]bze5.gif09-Nov-2016 10:26 5.4K 
[IMG]mspe10.gif09-Nov-2016 10:26 5.3K 
[IMG]Nmolrad.gif09-Nov-2016 10:26 4.5K 
[IMG]mspe13.gif09-Nov-2016 10:26 4.5K 
[IMG]mfree3.gif09-Nov-2016 10:26 4.5K 
[IMG]mspe11.gif09-Nov-2016 10:26 4.4K 
[IMG]rh1.gif09-Nov-2016 10:26 3.8K 
[IMG]ktassu.gif09-Nov-2016 10:26 3.7K 
[IMG]bol9b.gif09-Nov-2016 10:26 3.7K 
[IMG]bol11.gif09-Nov-2016 10:26 3.6K 
[IMG]grah.gif09-Nov-2016 10:26 3.5K 
[IMG]igas.gif09-Nov-2016 10:26 3.5K 
[IMG]bze1.gif09-Nov-2016 10:26 3.4K 
[IMG]kinpre.gif09-Nov-2016 10:26 3.3K 
[IMG]diff3.gif09-Nov-2016 10:26 3.2K 
[IMG]gauge.gif09-Nov-2016 10:26 3.2K 
[IMG]mxdv10.gif09-Nov-2016 10:26 3.2K 
[IMG]shm4.gif09-Nov-2016 10:26 3.0K 
[IMG]satvap.gif09-Nov-2016 10:26 3.0K 
[IMG]mfv2.gif09-Nov-2016 10:26 3.0K 
[IMG]waals.gif09-Nov-2016 10:26 2.8K 
[IMG]rtf2.gif09-Nov-2016 10:26 2.6K 
[IMG]rh2.gif09-Nov-2016 10:26 2.5K 
[IMG]mke2.gif09-Nov-2016 10:26 2.5K 
[IMG]satdens.gif09-Nov-2016 10:26 2.4K 
[IMG]kinpre4.gif09-Nov-2016 10:26 2.4K 
[IMG]vt.gif09-Nov-2016 10:26 2.4K 
[IMG]igsfor.gif09-Nov-2016 10:26 2.3K 
[IMG]mke1.gif09-Nov-2016 10:26 2.3K 
[IMG]mfree4.gif09-Nov-2016 10:26 2.3K 
[IMG]aircon.gif09-Nov-2016 10:26 2.3K 
[IMG]mfree6.gif09-Nov-2016 10:26 2.3K 
[IMG]bze4.gif09-Nov-2016 10:26 2.2K 
[IMG]bze2.gif09-Nov-2016 10:26 2.2K 
[IMG]mspe2.gif09-Nov-2016 10:26 2.2K 
[IMG]kintem3.gif09-Nov-2016 10:26 2.2K 
[IMG]mke3.gif09-Nov-2016 10:26 2.2K 
[IMG]diff2.gif09-Nov-2016 10:26 2.1K 
[IMG]df1.gif09-Nov-2016 10:26 2.1K 
[IMG]avogl.gif09-Nov-2016 10:26 2.0K 
[IMG]mspe3.gif09-Nov-2016 10:26 2.0K 
[IMG]df3.gif09-Nov-2016 10:26 2.0K 
[IMG]pvt.gif09-Nov-2016 10:26 1.9K 
[IMG]bze3.gif09-Nov-2016 10:26 1.9K 
[IMG]barf10.gif09-Nov-2016 10:26 1.9K 
[IMG]kinpre1.gif09-Nov-2016 10:26 1.8K 
[IMG]mxdv11.gif09-Nov-2016 10:26 1.8K 
[IMG]barf1.gif09-Nov-2016 10:26 1.7K 
[IMG]kt32.gif09-Nov-2016 10:26 1.7K 
[IMG]kinpre5.gif09-Nov-2016 10:26 1.7K 
[IMG]kinpre3.gif09-Nov-2016 10:26 1.6K 
[IMG]tini.gif09-Nov-2016 10:26 1.6K 
[IMG]igas2.gif09-Nov-2016 10:26 1.6K 
[IMG]tfin.gif09-Nov-2016 10:26 1.6K 
[IMG]pv.gif09-Nov-2016 10:26 1.6K 
[IMG]kinpre2.gif09-Nov-2016 10:26 1.5K 
[IMG]wv4.gif09-Nov-2016 10:26 1.5K 
[IMG]osmop.gif09-Nov-2016 10:26 1.5K 
[IMG]mke5.gif09-Nov-2016 10:26 1.5K 
[IMG]pini.gif09-Nov-2016 10:26 1.5K 
[IMG]mspe7.gif09-Nov-2016 10:26 1.5K 
[IMG]mspe4.gif09-Nov-2016 10:26 1.5K 
[IMG]pfin.gif09-Nov-2016 10:26 1.4K 
[IMG]rt32.gif09-Nov-2016 10:26 1.4K 
[IMG]mke4.gif09-Nov-2016 10:26 1.4K 
[IMG]igas3.gif09-Nov-2016 10:26 1.4K 
[IMG]vini.gif09-Nov-2016 10:26 1.4K 
[IMG]vfin.gif09-Nov-2016 10:26 1.4K 
[IMG]mspe.gif09-Nov-2016 10:26 1.4K 
[IMG]igas4.gif09-Nov-2016 10:26 1.4K 
[IMG]psig.gif09-Nov-2016 10:26 1.3K 
[IMG]osmop2.gif09-Nov-2016 10:26 1.2K 
[IMG]bol3b.gif09-Nov-2016 10:26 1.2K 
[IMG]df2.gif09-Nov-2016 10:26 1.1K 
[IMG]mmhg.gif09-Nov-2016 10:26 1.0K 
[IMG]mxdv8.gif09-Nov-2016 10:26 1.0K 
[IMG]mxdv2.gif09-Nov-2016 10:26 1.0K 
[IMG]psi.gif09-Nov-2016 10:26 1.0K 
[IMG]mxdv9.gif09-Nov-2016 10:26 1.0K 
[IMG]inhg.gif09-Nov-2016 10:26 1.0K 
[IMG]cm3.gif09-Nov-2016 10:26 1.0K 
[IMG]kpa.gif09-Nov-2016 10:26 1.0K 
[IMG]m3.gif09-Nov-2016 10:26 1.0K 
[IMG]in3.gif09-Nov-2016 10:26 1.0K 
[IMG]cv6.gif09-Nov-2016 10:26 1.0K 
[IMG]ft3.gif09-Nov-2016 10:26 1.0K 
[IMG]bol2b.gif09-Nov-2016 10:26 962  
[IMG]C.gif09-Nov-2016 10:26 961  
[IMG]K.gif09-Nov-2016 10:26 937  
[IMG]F.gif09-Nov-2016 10:26 931  
[IMG]L.gif09-Nov-2016 10:26 903  
[IMG]kintem4.gif09-Nov-2016 10:26 749  
[IMG]bol2c.gif09-Nov-2016 10:26 701  
[IMG]shm3.gif09-Nov-2016 10:26 698  
[IMG]mxdv13.gif09-Nov-2016 10:26 692  
[IMG]bol7b.gif09-Nov-2016 10:26 678  
[IMG]barf3.gif09-Nov-2016 10:26 657  
[IMG]mspe5.gif09-Nov-2016 10:26 656  
[IMG]shg2.gif09-Nov-2016 10:26 646  
[IMG]bol1.gif09-Nov-2016 10:26 632  
[IMG]kintem1.gif09-Nov-2016 10:26 613  
[IMG]shm2.gif09-Nov-2016 10:26 599  
[IMG]kintem2.gif09-Nov-2016 10:26 596  
[IMG]shm1.gif09-Nov-2016 10:26 573  
[IMG]mspe8.gif09-Nov-2016 10:26 572  
[IMG]mspe9.gif09-Nov-2016 10:26 563  
[IMG]mspe6.gif09-Nov-2016 10:26 553  
[IMG]cp3.gif09-Nov-2016 10:26 544  
[IMG]barf4.gif09-Nov-2016 10:26 541  
[IMG]mxdv12.gif09-Nov-2016 10:26 522  
[IMG]shg1.gif09-Nov-2016 10:26 501  
[IMG]barf7.gif09-Nov-2016 10:26 487  
[IMG]avog.gif09-Nov-2016 10:26 470  
[IMG]mxdv7.gif09-Nov-2016 10:26 457  
[IMG]cp1.gif09-Nov-2016 10:26 440  
[IMG]barf9.gif09-Nov-2016 10:26 419  
[IMG]cv1.gif09-Nov-2016 10:26 413  
[IMG]mxdv3.gif09-Nov-2016 10:26 405  
[IMG]mxdv4.gif09-Nov-2016 10:26 398  
[IMG]cp6.gif09-Nov-2016 10:26 394  
[IMG]cv5.gif09-Nov-2016 10:26 380  
[IMG]wv3.gif09-Nov-2016 10:26 342  
[IMG]mxdv1.gif09-Nov-2016 10:26 334  
[IMG]cp2.gif09-Nov-2016 10:26 324  
[IMG]msp6.gif09-Nov-2016 10:26 317  
[IMG]barf8.gif09-Nov-2016 10:26 315  
[IMG]cv2.gif09-Nov-2016 10:26 308  
[IMG]barf6.gif09-Nov-2016 10:26 304  
[IMG]barf5.gif09-Nov-2016 10:26 295  
[IMG]cp4.gif09-Nov-2016 10:26 290  
[IMG]mxdv6.gif09-Nov-2016 10:26 289  
[IMG]cv3.gif09-Nov-2016 10:26 289  
[IMG]cv4.gif09-Nov-2016 10:26 245  
[IMG]mxdv5.gif09-Nov-2016 10:26 244  
[IMG]shg3.gif09-Nov-2016 10:26 232  
[IMG]cp5.gif09-Nov-2016 10:26 232  
[IMG]wv1.gif09-Nov-2016 10:26 217  
[IMG]wv2.gif09-Nov-2016 10:26 210  
[IMG]vrms.gif09-Nov-2016 10:26 171  
[IMG]deltav.gif09-Nov-2016 10:26 162  
[IMG]p0.gif09-Nov-2016 10:26 157  
[IMG]ph.gif09-Nov-2016 10:26 156  
[IMG]cv.gif09-Nov-2016 10:26 152  
[IMG]cp.gif09-Nov-2016 10:26 152  
[IMG]vp.gif09-Nov-2016 10:26 151  
[IMG]vm.gif09-Nov-2016 10:26 144  
[IMG]rho.gif09-Nov-2016 10:26 144  
[IMG]lambda.gif09-Nov-2016 10:26 141  

Apache/2.2.15 (CentOS) Server at hyperphysics.phy-astr.gsu.edu Port 80